Terminal Aerodrome Forecast
Issued by NWS Duluth, MN

Home | Current Version | Previous Version | Text Only | Print | Product List | Glossary On
Versions: 1 2 3 4 5 6 7 8 9 10 11 12 13 14 15 16 17 18 19 20 21 22 23 24
000
FTUS43 KDLH 211100
TAFDLH
TAF
KDLH 211120Z 2112/2212 11009KT P6SM OVC015
     FM211800 11010KT P6SM SCT015
     FM220500 14007KT P6SM FEW015=

USA.gov is the U.S. government's official web portal to all federal, state and local government web resources and services.